Weather History for KAGC - February, 2014

Change the Weather History Date:

Friday, February 28, 2014

  Actual Average Record
Temperature  
Mean Temperature 14 °F -  
Max Temperature 26 °F 45 °F 61 °F (2011)
Min Temperature 3 °F 26 °F 3 °F (2014)
Degree Days  
Heating Degree Days 50    
Moisture  
Dew Point -4 °F    
Average Humidity 45    
Maximum Humidity 67    
Minimum Humidity 22    
Precipitation  
Precipitation 0.00 in - - ()
Sea Level Pressure  
Sea Level Pressure 30.29 in    
Wind  
Wind Speed 3 mph (ESE)    
Max Wind Speed 7 mph    
Max Gust Speed -    
Visibility 10 miles    
Events      
Averages and records for this station are not official NWS values.
T = Trace of Precipitation, MM = Missing Value Source: NWS Daily Summary

Daily Weather History Graph

Daily Weather History Graph

Search for Another Location

Airport or City:

Trip Planner

Search our weather history database for the weather conditions in past years. The results will help you decide how hot, cold, wet, or windy it might be!

Date:

Astronomy

Feb. 28, 2014 Rise Set
Actual Time 6:54 AM EST 6:10 PM EST
Civil Twilight 6:27 AM EST 6:37 PM EST
Nautical Twilight 5:55 AM EST 7:09 PM EST
Astronomical Twilight 5:24 AM EST 7:40 PM EST
Moon 6:08 AM EST (2/28) 5:45 PM EST (2/28)
Length of Visible Light 12h 10m
Length of Day
11h 15m
Waning Crescent, 1% of the Moon is Illuminated
Feb 28
Waning Crescent
Mar 1
New
Mar 8
First Quarter
Mar 16
Full
Mar 23
Last Quarter

Hourly Weather History & Observations

Time (EST) Temp. Windchill Dew Point Humidity Pressure Visibility Wind Dir Wind Speed Gust Speed Precip Events Conditions
12:53 AM 6.1 °F -0.9 °F -5.1 °F 60% 30.22 in 10.0 mi North 3.5 mph - N/A   Clear
1:53 AM 5.0 °F - -4.0 °F 66% 30.23 in 10.0 mi Calm Calm - N/A   Clear
2:53 AM 6.1 °F - -4.0 °F 63% 30.24 in 10.0 mi Calm Calm - N/A   Clear
3:53 AM 5.0 °F - -4.0 °F 66% 30.26 in 10.0 mi Calm Calm - N/A   Clear
4:53 AM 3.9 °F - -5.1 °F 66% 30.29 in 10.0 mi Calm Calm - N/A   Clear
5:53 AM 3.9 °F - -5.1 °F 66% 30.31 in 10.0 mi Calm Calm - N/A   Clear
6:53 AM 3.9 °F -3.4 °F -5.1 °F 66% 30.34 in 10.0 mi East 3.5 mph - N/A   Clear
7:53 AM 6.1 °F -2.8 °F -2.9 °F 67% 30.36 in 10.0 mi East 4.6 mph - N/A   Clear
8:53 AM 8.1 °F -3.2 °F -5.1 °F 55% 30.39 in 10.0 mi SE 6.9 mph - N/A   Clear
9:53 AM 10.9 °F - -5.1 °F 49% 30.40 in 10.0 mi Calm Calm - N/A   Clear
10:53 AM 14.0 °F 3.9 °F -2.9 °F 47% 30.38 in 10.0 mi Variable 6.9 mph - N/A   Clear
11:53 AM 16.0 °F 7.4 °F -4.0 °F 41% 30.36 in 10.0 mi Variable 5.8 mph - N/A   Clear
12:53 PM 19.0 °F 12.3 °F -5.1 °F 34% 30.35 in 10.0 mi SSE 4.6 mph - N/A   Clear
1:53 PM 21.9 °F 17.2 °F -4.0 °F 32% 30.31 in 10.0 mi Variable 3.5 mph - N/A   Clear
2:53 PM 24.1 °F - -4.0 °F 29% 30.30 in 10.0 mi Calm Calm - N/A   Clear
3:53 PM 26.1 °F 20.5 °F -6.0 °F 25% 30.28 in 10.0 mi Variable 4.6 mph - N/A   Clear
4:53 PM 26.1 °F 20.5 °F -6.0 °F 25% 30.28 in 10.0 mi South 4.6 mph - N/A   Clear
5:53 PM 26.1 °F - -8.0 °F 22% 30.27 in 10.0 mi Calm Calm - N/A   Clear
6:53 PM 25.0 °F - -6.0 °F 26% 30.25 in 10.0 mi Calm Calm - N/A   Clear
7:53 PM 23.0 °F 15.8 °F -4.0 °F 31% 30.24 in 10.0 mi East 5.8 mph - N/A   Clear
8:53 PM 23.0 °F 15.8 °F -2.9 °F 32% 30.23 in 10.0 mi East 5.8 mph - N/A   Clear
9:53 PM 23.0 °F - -2.9 °F 32% 30.22 in 10.0 mi Calm Calm - N/A   Clear
10:53 PM 21.9 °F 15.7 °F -2.0 °F 35% 30.21 in 10.0 mi East 4.6 mph - N/A   Clear
11:53 PM 21.0 °F 14.6 °F -0.0 °F 40% 30.20 in 10.0 mi SE 4.6 mph - N/A   Clear